Location: ????
(32.1228°N, 34.8377°E)
Time: 17:27:13
(UTC+00:00)

FENGYUN 3A - Pass Details

Date: 21 September 2020
Orbit: 824 x 836 km, 98.4° (Epoch: 25 October)

Event Time Altitude Azimuth Distance (km) Brightness Sun altitude
Rises 02:03:53 0° 15° (NNE) 3,368 7.2 -18.6°
Reaches altitude 10° 02:06:15 10° 18° (NNE) 2,433 6.5 -18.1°
Maximum altitude 02:11:37 69° 102° (ESE) 886 4.0 -17.0°
Drops below altitude 10° 02:16:59 10° 185° (S) 2,428 5.9 -15.8°
Sets 02:19:20 0° 188° (S) 3,359 6.6 -15.4°
